Location: Unspecified
(47.5840°N, 122.3000°W)
Time: 10:43:12
(UTC+00:00)

Cosmos 2369 - Pass Details

Date: 09 December 2025
Orbit: 839 x 853 km, 71.0° (Epoch: 20 January)

Event Time Altitude Azimuth Distance (km) Brightness Sun altitude
Exits shadow 12:33:57 57° 131° (SE) 993 4.1 -31.3°
Drops below altitude 10° 12:38:27 10° 148° (SSE) 2,461 6.5 -30.5°
Sets 12:40:53 0° 150° (SSE) 3,390 7.2 -30.1°
